Year,Month,Day,Hour,Minute,Value (Times are PST for temperature in C)
2014,09,19,00,00,16.40
2014,09,19,00,01,16.40
2014,09,19,00,02,16.40
2014,09,19,00,03,16.40
2014,09,19,00,04,16.40
2014,09,19,00,05,16.40
2014,09,19,00,06,16.40
2014,09,19,00,07,16.40
2014,09,19,00,08,16.30
2014,09,19,00,09,16.30
2014,09,19,00,10,16.30
2014,09,19,00,11,16.30
2014,09,19,00,12,16.30
2014,09,19,00,13,16.30
2014,09,19,00,14,16.30
2014,09,19,00,15,16.30
2014,09,19,00,16,16.30
2014,09,19,00,17,16.30
2014,09,19,00,18,16.30
2014,09,19,00,19,16.30
2014,09,19,00,20,16.30
2014,09,19,00,21,16.30
2014,09,19,00,22,16.30
2014,09,19,00,23,16.30
2014,09,19,00,24,16.30
2014,09,19,00,25,16.20
2014,09,19,00,26,16.20
2014,09,19,00,27,16.20
2014,09,19,00,28,16.20
2014,09,19,00,29,16.20
2014,09,19,00,30,16.20
2014,09,19,00,31,16.20
2014,09,19,00,32,16.10
2014,09,19,00,33,16.10
2014,09,19,00,34,16.10
2014,09,19,00,35,16.10
2014,09,19,00,36,16.10
2014,09,19,00,37,16.10
2014,09,19,00,38,16.10
2014,09,19,00,39,16.10
2014,09,19,00,40,16.10
2014,09,19,00,41,16.10
2014,09,19,00,42,16.10
2014,09,19,00,43,16.10
2014,09,19,00,44,16.10
2014,09,19,00,45,16.10
2014,09,19,00,46,16.10
2014,09,19,00,47,16.10
2014,09,19,00,48,16.10
2014,09,19,00,49,16.10
2014,09,19,00,50,16.10
2014,09,19,00,51,16.10
2014,09,19,00,52,16.10
2014,09,19,00,53,16.20
2014,09,19,00,54,16.20
2014,09,19,00,55,16.20
2014,09,19,00,56,16.30
2014,09,19,00,57,16.30
2014,09,19,00,58,16.40
2014,09,19,00,59,16.40
2014,09,19,01,00,16.50
2014,09,19,01,01,16.50
2014,09,19,01,02,16.50
2014,09,19,01,03,16.60
2014,09,19,01,04,16.60
2014,09,19,01,05,16.60
2014,09,19,01,06,16.70
2014,09,19,01,07,16.70
2014,09,19,01,08,16.70
2014,09,19,01,09,16.70
2014,09,19,01,10,16.70
2014,09,19,01,11,16.70
2014,09,19,01,12,16.70
2014,09,19,01,13,16.70
2014,09,19,01,14,16.70
2014,09,19,01,15,16.70
2014,09,19,01,16,16.70
2014,09,19,01,17,16.70
2014,09,19,01,18,16.70
2014,09,19,01,19,16.70
2014,09,19,01,20,16.70
2014,09,19,01,21,16.80
2014,09,19,01,22,16.80
2014,09,19,01,23,16.80
2014,09,19,01,24,16.80
2014,09,19,01,25,16.80
2014,09,19,01,26,16.70
2014,09,19,01,27,16.70
2014,09,19,01,28,16.70
2014,09,19,01,29,16.70
2014,09,19,01,30,16.70
2014,09,19,01,31,16.70
2014,09,19,01,32,16.70
2014,09,19,01,33,16.70
2014,09,19,01,34,16.70
2014,09,19,01,35,16.70
2014,09,19,01,36,16.70
2014,09,19,01,37,16.70
2014,09,19,01,38,16.70
2014,09,19,01,39,16.70
2014,09,19,01,40,16.70
2014,09,19,01,41,16.70
2014,09,19,01,42,16.70
2014,09,19,01,43,16.70
2014,09,19,01,44,16.70
2014,09,19,01,45,16.70
2014,09,19,01,46,16.70
2014,09,19,01,47,16.60
2014,09,19,01,48,16.60
2014,09,19,01,49,16.60
2014,09,19,01,50,16.60
2014,09,19,01,51,16.60
2014,09,19,01,52,16.60
2014,09,19,01,53,16.60
2014,09,19,01,54,16.60
2014,09,19,01,55,16.60
2014,09,19,01,56,16.60
2014,09,19,01,57,16.60
2014,09,19,01,58,16.50
2014,09,19,01,59,16.50
2014,09,19,02,00,16.50
2014,09,19,02,01,16.50
2014,09,19,02,02,16.50
2014,09,19,02,03,16.50
2014,09,19,02,04,16.50
2014,09,19,02,05,16.50
2014,09,19,02,06,16.50
2014,09,19,02,07,16.50
2014,09,19,02,08,16.50
2014,09,19,02,09,16.50
2014,09,19,02,10,16.60
2014,09,19,02,11,16.60
2014,09,19,02,12,16.60
2014,09,19,02,13,16.60
2014,09,19,02,14,16.60
2014,09,19,02,15,16.60
2014,09,19,02,16,16.60
2014,09,19,02,17,16.60
2014,09,19,02,18,16.60
2014,09,19,02,19,16.60
2014,09,19,02,20,16.60
2014,09,19,02,21,16.70
2014,09,19,02,22,16.70
2014,09,19,02,23,16.70
2014,09,19,02,24,16.70
2014,09,19,02,25,16.80
2014,09,19,02,26,16.80
2014,09,19,02,27,16.80
2014,09,19,02,28,16.90
2014,09,19,02,29,16.90
2014,09,19,02,30,16.90
2014,09,19,02,31,16.90
2014,09,19,02,32,17.00
2014,09,19,02,33,17.00
2014,09,19,02,34,17.00
2014,09,19,02,35,17.10
2014,09,19,02,36,17.10
2014,09,19,02,37,17.10
2014,09,19,02,38,17.10
2014,09,19,02,39,17.10
2014,09,19,02,40,17.10
2014,09,19,02,41,17.10
2014,09,19,02,42,17.10
2014,09,19,02,43,17.10
2014,09,19,02,44,17.10
2014,09,19,02,45,17.10
2014,09,19,02,46,17.10
2014,09,19,02,47,17.10
2014,09,19,02,48,17.10
2014,09,19,02,49,17.10
2014,09,19,02,50,17.10
2014,09,19,02,51,17.10
2014,09,19,02,52,17.00
2014,09,19,02,53,17.00
2014,09,19,02,54,17.00
2014,09,19,02,55,17.00
2014,09,19,02,56,17.00
2014,09,19,02,57,17.00
2014,09,19,02,58,17.00
2014,09,19,02,59,17.00
2014,09,19,03,00,16.90
2014,09,19,03,01,16.90
2014,09,19,03,02,16.90
2014,09,19,03,03,16.90
2014,09,19,03,04,16.90
2014,09,19,03,05,16.90
2014,09,19,03,06,16.90
2014,09,19,03,07,16.80
2014,09,19,03,08,16.80
2014,09,19,03,09,16.80
2014,09,19,03,10,16.80
2014,09,19,03,11,16.80
2014,09,19,03,12,16.80
2014,09,19,03,13,16.80
2014,09,19,03,14,16.80
2014,09,19,03,15,16.80
2014,09,19,03,16,16.80
2014,09,19,03,17,16.70
2014,09,19,03,18,16.70
2014,09,19,03,19,16.70
2014,09,19,03,20,16.70
2014,09,19,03,21,16.70
2014,09,19,03,22,16.70
2014,09,19,03,23,16.70
2014,09,19,03,24,16.70
2014,09,19,03,25,16.70
2014,09,19,03,26,16.70
2014,09,19,03,27,16.70
2014,09,19,03,28,16.70
2014,09,19,03,29,16.70
2014,09,19,03,30,16.60
2014,09,19,03,31,16.60
2014,09,19,03,32,16.60
2014,09,19,03,33,16.60
2014,09,19,03,34,16.60
2014,09,19,03,35,16.60
2014,09,19,03,36,16.60
2014,09,19,03,37,16.60
2014,09,19,03,38,16.60
2014,09,19,03,39,16.50
2014,09,19,03,40,16.50
2014,09,19,03,41,16.50
2014,09,19,03,42,16.50
2014,09,19,03,43,16.50
2014,09,19,03,44,16.50
2014,09,19,03,45,16.50
2014,09,19,03,46,16.50
2014,09,19,03,47,16.50
2014,09,19,03,48,16.50
2014,09,19,03,49,16.50
2014,09,19,03,50,16.50
2014,09,19,03,51,16.50
2014,09,19,03,52,16.50
2014,09,19,03,53,16.50
2014,09,19,03,54,16.50
2014,09,19,03,55,16.50
2014,09,19,03,56,16.50
2014,09,19,03,57,16.50
2014,09,19,03,58,16.50
2014,09,19,03,59,16.50
2014,09,19,04,00,16.50
2014,09,19,04,01,16.50
2014,09,19,04,02,16.50
2014,09,19,04,03,16.50
2014,09,19,04,04,16.50
2014,09,19,04,05,16.50
2014,09,19,04,06,16.50
2014,09,19,04,07,16.60
2014,09,19,04,08,16.60
2014,09,19,04,09,16.60
2014,09,19,04,10,16.60
2014,09,19,04,11,16.60
2014,09,19,04,12,16.60
2014,09,19,04,13,16.60
2014,09,19,04,14,16.60
2014,09,19,04,15,16.60
2014,09,19,04,16,16.60
2014,09,19,04,17,16.60
2014,09,19,04,18,16.70
2014,09,19,04,19,16.70
2014,09,19,04,20,16.70
2014,09,19,04,21,16.70
2014,09,19,04,22,16.70
2014,09,19,04,23,16.70
2014,09,19,04,24,16.70
2014,09,19,04,25,16.70
2014,09,19,04,26,16.70
2014,09,19,04,27,16.70
2014,09,19,04,28,16.70
2014,09,19,04,29,16.70
2014,09,19,04,30,16.70
2014,09,19,04,31,16.60
2014,09,19,04,32,16.60
2014,09,19,04,33,16.60
2014,09,19,04,34,16.60
2014,09,19,04,35,16.70
2014,09,19,04,36,16.70
2014,09,19,04,37,16.70
2014,09,19,04,38,16.70
2014,09,19,04,39,16.70
2014,09,19,04,40,16.70
2014,09,19,04,41,16.70
2014,09,19,04,42,16.70
2014,09,19,04,43,16.80
2014,09,19,04,44,16.80
2014,09,19,04,45,16.80
2014,09,19,04,46,16.80
2014,09,19,04,47,16.80
2014,09,19,04,48,16.80
2014,09,19,04,49,16.80
2014,09,19,04,50,16.80
2014,09,19,04,51,16.90
2014,09,19,04,52,16.90
2014,09,19,04,53,16.90
2014,09,19,04,54,16.90
2014,09,19,04,55,16.90
2014,09,19,04,56,17.00
2014,09,19,04,57,17.00
2014,09,19,04,58,17.00
2014,09,19,04,59,17.10
2014,09,19,05,00,17.10
2014,09,19,05,01,17.10
2014,09,19,05,02,17.10
2014,09,19,05,03,17.10
2014,09,19,05,04,17.10
2014,09,19,05,05,17.10
2014,09,19,05,06,17.10
2014,09,19,05,07,17.10
2014,09,19,05,08,17.10
2014,09,19,05,09,17.10
2014,09,19,05,10,17.10
2014,09,19,05,11,17.10
2014,09,19,05,12,17.10
2014,09,19,05,13,17.10
2014,09,19,05,14,17.10
2014,09,19,05,15,17.10
2014,09,19,05,16,17.10
2014,09,19,05,17,17.10
2014,09,19,05,18,17.10
2014,09,19,05,19,17.10
2014,09,19,05,20,17.10
2014,09,19,05,21,17.10
2014,09,19,05,22,17.10
2014,09,19,05,23,17.00
2014,09,19,05,24,17.00
2014,09,19,05,25,17.00
2014,09,19,05,26,17.00
2014,09,19,05,27,17.00
2014,09,19,05,28,17.00
2014,09,19,05,29,17.00
2014,09,19,05,30,17.00
2014,09,19,05,31,17.00
2014,09,19,05,32,17.00
2014,09,19,05,33,17.00
2014,09,19,05,34,17.00
2014,09,19,05,35,17.00
2014,09,19,05,36,16.90
2014,09,19,05,37,16.90
2014,09,19,05,38,16.90
2014,09,19,05,39,16.90
2014,09,19,05,40,16.90
2014,09,19,05,41,16.90
2014,09,19,05,42,16.90
2014,09,19,05,43,16.80
2014,09,19,05,44,16.80
2014,09,19,05,45,16.80
2014,09,19,05,46,16.80
2014,09,19,05,47,16.80
2014,09,19,05,48,16.80
2014,09,19,05,49,16.80
2014,09,19,05,50,16.80
2014,09,19,05,51,16.70
2014,09,19,05,52,16.70
2014,09,19,05,53,16.70
2014,09,19,05,54,16.70
2014,09,19,05,55,16.60
2014,09,19,05,56,16.60
2014,09,19,05,57,16.50
2014,09,19,05,58,16.50
2014,09,19,05,59,16.40
2014,09,19,06,00,16.40
2014,09,19,06,01,16.30
2014,09,19,06,02,16.30
2014,09,19,06,03,16.30
2014,09,19,06,04,16.20
2014,09,19,06,05,16.20
2014,09,19,06,06,16.10
2014,09,19,06,07,16.10
2014,09,19,06,08,16.10
2014,09,19,06,09,16.00
2014,09,19,06,10,16.00
2014,09,19,06,11,16.00
2014,09,19,06,12,16.00
2014,09,19,06,13,15.90
2014,09,19,06,14,15.90
2014,09,19,06,15,15.90
2014,09,19,06,16,15.90
2014,09,19,06,17,15.90
2014,09,19,06,18,15.90
2014,09,19,06,19,15.90
2014,09,19,06,20,15.80
2014,09,19,06,21,15.80
2014,09,19,06,22,15.80
2014,09,19,06,23,15.80
2014,09,19,06,24,15.80
2014,09,19,06,25,15.80
2014,09,19,06,26,15.70
2014,09,19,06,27,15.70
2014,09,19,06,28,15.70
2014,09,19,06,29,15.70
2014,09,19,06,30,15.70
2014,09,19,06,31,15.60
2014,09,19,06,32,15.60
2014,09,19,06,33,15.60
2014,09,19,06,34,15.60
2014,09,19,06,35,15.60
2014,09,19,06,36,15.60
2014,09,19,06,37,15.50
2014,09,19,06,38,15.50
2014,09,19,06,39,15.50
2014,09,19,06,40,15.40
2014,09,19,06,41,15.40
2014,09,19,06,42,15.40
2014,09,19,06,43,15.40
2014,09,19,06,44,15.30
2014,09,19,06,45,15.30
2014,09,19,06,46,15.30
2014,09,19,06,47,15.30
2014,09,19,06,48,15.20
2014,09,19,06,49,15.20
2014,09,19,06,50,15.20
2014,09,19,06,51,15.10
2014,09,19,06,52,15.10
2014,09,19,06,53,15.10
2014,09,19,06,54,15.10
2014,09,19,06,55,15.10
2014,09,19,06,56,15.10
2014,09,19,06,57,15.10
2014,09,19,06,58,15.10
2014,09,19,06,59,15.10
2014,09,19,07,00,15.10
2014,09,19,07,01,15.10
2014,09,19,07,02,15.10
2014,09,19,07,03,15.10
2014,09,19,07,04,15.10
2014,09,19,07,05,15.10
2014,09,19,07,06,15.10
2014,09,19,07,07,15.10
2014,09,19,07,08,15.10
2014,09,19,07,09,15.10
2014,09,19,07,10,15.00
2014,09,19,07,11,15.00
2014,09,19,07,12,15.00
2014,09,19,07,13,15.00
2014,09,19,07,14,15.00
2014,09,19,07,15,15.00
2014,09,19,07,16,15.00
2014,09,19,07,17,15.00
2014,09,19,07,18,15.00
2014,09,19,07,19,15.00
2014,09,19,07,20,15.00
2014,09,19,07,21,15.00
2014,09,19,07,22,15.10
2014,09,19,07,23,15.10
2014,09,19,07,24,15.10
2014,09,19,07,25,15.10
2014,09,19,07,26,15.10
2014,09,19,07,27,15.10
2014,09,19,07,28,15.10
2014,09,19,07,29,15.10
2014,09,19,07,30,15.20
2014,09,19,07,31,15.20
2014,09,19,07,32,15.20
2014,09,19,07,33,15.20
2014,09,19,07,34,15.20
2014,09,19,07,35,15.20
2014,09,19,07,36,15.20
2014,09,19,07,37,15.30
2014,09,19,07,38,15.30
2014,09,19,07,39,15.30
2014,09,19,07,40,15.30
2014,09,19,07,41,15.30
2014,09,19,07,42,15.30
2014,09,19,07,43,15.30
2014,09,19,07,44,15.30
2014,09,19,07,45,15.30
2014,09,19,07,46,15.30
2014,09,19,07,47,15.30
2014,09,19,07,48,15.30
2014,09,19,07,49,15.30
2014,09,19,07,50,15.30
2014,09,19,07,51,15.30
2014,09,19,07,52,15.30
2014,09,19,07,53,15.30
2014,09,19,07,54,15.30
2014,09,19,07,55,15.30
2014,09,19,07,56,15.30
2014,09,19,07,57,15.30
2014,09,19,07,58,15.30
2014,09,19,07,59,15.30
2014,09,19,08,00,15.30
2014,09,19,08,01,15.30
2014,09,19,08,02,15.30
2014,09,19,08,03,15.30
2014,09,19,08,04,15.30
2014,09,19,08,05,15.30
2014,09,19,08,06,15.30
2014,09,19,08,07,15.30
2014,09,19,08,08,15.30
2014,09,19,08,09,15.20
2014,09,19,08,10,15.20
2014,09,19,08,11,15.20
2014,09,19,08,12,15.20
2014,09,19,08,13,15.20
2014,09,19,08,14,15.20
2014,09,19,08,15,15.10
2014,09,19,08,16,15.10
2014,09,19,08,17,15.10
2014,09,19,08,18,15.10
2014,09,19,08,19,15.10
2014,09,19,08,20,15.10
2014,09,19,08,21,15.10
2014,09,19,08,22,15.00
2014,09,19,08,23,15.00
2014,09,19,08,24,15.00
2014,09,19,08,25,15.00
2014,09,19,08,26,14.90
2014,09,19,08,27,15.00
2014,09,19,08,28,14.90
2014,09,19,08,29,14.90
2014,09,19,08,30,14.90
2014,09,19,08,31,14.90
2014,09,19,08,32,14.90
2014,09,19,08,33,15.00
2014,09,19,08,34,15.00
2014,09,19,08,35,15.00
2014,09,19,08,36,15.00
2014,09,19,08,37,15.00
2014,09,19,08,38,15.00
2014,09,19,08,39,15.00
2014,09,19,08,40,15.00
2014,09,19,08,41,15.00
2014,09,19,08,42,15.00
2014,09,19,08,43,15.00
2014,09,19,08,44,15.00
2014,09,19,08,45,15.00
2014,09,19,08,46,15.00
2014,09,19,08,47,15.00
2014,09,19,08,48,14.90
2014,09,19,08,49,14.90
2014,09,19,08,50,14.90
2014,09,19,08,51,14.90
2014,09,19,08,52,14.80
2014,09,19,08,53,14.80
2014,09,19,08,54,14.80
2014,09,19,08,55,14.70
2014,09,19,08,56,14.70
2014,09,19,08,57,14.70
2014,09,19,08,58,14.60
2014,09,19,08,59,14.60
2014,09,19,09,00,14.50
2014,09,19,09,01,14.50
2014,09,19,09,02,14.50
2014,09,19,09,03,14.40
2014,09,19,09,04,14.40
2014,09,19,09,05,14.40
2014,09,19,09,06,14.40
2014,09,19,09,07,14.30
2014,09,19,09,08,14.30
2014,09,19,09,09,14.30
2014,09,19,09,10,14.30
2014,09,19,09,11,14.30
2014,09,19,09,12,14.30
2014,09,19,09,13,14.30
2014,09,19,09,14,14.30
2014,09,19,09,15,14.30
2014,09,19,09,16,14.30
2014,09,19,09,17,14.30
2014,09,19,09,18,14.30
2014,09,19,09,19,14.40
2014,09,19,09,20,14.40
2014,09,19,09,21,14.40
2014,09,19,09,22,14.40
2014,09,19,09,23,14.40
2014,09,19,09,24,14.40
2014,09,19,09,25,14.40
2014,09,19,09,26,14.40
2014,09,19,09,27,14.40
2014,09,19,09,28,14.40
2014,09,19,09,29,14.40
2014,09,19,09,30,14.40
2014,09,19,09,31,14.40
2014,09,19,09,32,14.50
2014,09,19,09,33,14.50
2014,09,19,09,34,14.50
2014,09,19,09,35,14.50
2014,09,19,09,36,14.50
2014,09,19,09,37,14.60
2014,09,19,09,38,14.60
2014,09,19,09,39,14.60
2014,09,19,09,40,14.60
2014,09,19,09,41,14.60
2014,09,19,09,42,14.60
2014,09,19,09,43,14.60
2014,09,19,09,44,14.60
2014,09,19,09,45,14.60
2014,09,19,09,46,14.60
2014,09,19,09,47,14.60
2014,09,19,09,48,14.60
2014,09,19,09,49,14.60
2014,09,19,09,50,14.60
2014,09,19,09,51,14.60
2014,09,19,09,52,14.60
2014,09,19,09,53,14.60
2014,09,19,09,54,14.60
2014,09,19,09,55,14.60
2014,09,19,09,56,14.60
2014,09,19,09,57,14.60
2014,09,19,09,58,14.60
2014,09,19,09,59,14.60
2014,09,19,10,00,14.60
2014,09,19,10,01,14.60
2014,09,19,10,02,14.60
2014,09,19,10,03,14.70
2014,09,19,10,04,14.70
2014,09,19,10,05,14.70
2014,09,19,10,06,14.70
2014,09,19,10,07,14.70
2014,09,19,10,08,14.70
2014,09,19,10,09,14.70
2014,09,19,10,10,14.70
2014,09,19,10,11,14.80
2014,09,19,10,12,14.80
2014,09,19,10,13,14.80
2014,09,19,10,14,14.80
2014,09,19,10,15,14.80
2014,09,19,10,16,14.80
2014,09,19,10,17,14.90
2014,09,19,10,18,14.90
2014,09,19,10,19,14.90
2014,09,19,10,20,14.90
2014,09,19,10,21,15.00
2014,09,19,10,22,15.00
2014,09,19,10,23,15.00
2014,09,19,10,24,15.10
2014,09,19,10,25,15.10
2014,09,19,10,26,15.10
2014,09,19,10,27,15.10
2014,09,19,10,28,15.20
2014,09,19,10,29,15.20
2014,09,19,10,30,15.20
2014,09,19,10,31,15.20
2014,09,19,10,32,15.30
2014,09,19,10,33,15.30
2014,09,19,10,34,15.30
2014,09,19,10,35,15.30
2014,09,19,10,36,15.30
2014,09,19,10,37,15.30
2014,09,19,10,38,15.30
2014,09,19,10,39,15.30
2014,09,19,10,40,15.30
2014,09,19,10,41,15.30
2014,09,19,10,42,15.30
2014,09,19,10,43,15.30
2014,09,19,10,44,15.30
2014,09,19,10,45,15.40
2014,09,19,10,46,15.40
2014,09,19,10,47,15.40
2014,09,19,10,48,15.40
2014,09,19,10,49,15.40
2014,09,19,10,50,15.40
2014,09,19,10,51,15.40
2014,09,19,10,52,15.40
2014,09,19,10,53,15.40
2014,09,19,10,54,15.40
2014,09,19,10,55,15.40
2014,09,19,10,56,15.40
2014,09,19,10,57,15.40
2014,09,19,10,58,15.40
2014,09,19,10,59,15.50
2014,09,19,11,00,15.50
2014,09,19,11,01,15.50
2014,09,19,11,02,15.50
2014,09,19,11,03,15.50
2014,09,19,11,04,15.50
2014,09,19,11,05,15.50
2014,09,19,11,06,15.60
2014,09,19,11,07,15.60
2014,09,19,11,08,15.60
2014,09,19,11,09,15.60
2014,09,19,11,10,15.60
2014,09,19,11,11,15.70
2014,09,19,11,12,15.70
2014,09,19,11,13,15.70
2014,09,19,11,14,15.70
2014,09,19,11,15,15.70
2014,09,19,11,16,15.70
2014,09,19,11,17,15.70
2014,09,19,11,18,15.70
2014,09,19,11,19,15.70
2014,09,19,11,20,15.70
2014,09,19,11,21,15.70
2014,09,19,11,22,15.80
2014,09,19,11,23,15.80
2014,09,19,11,24,15.80
2014,09,19,11,25,15.80
2014,09,19,11,26,15.80
2014,09,19,11,27,15.80
2014,09,19,11,28,15.90
2014,09,19,11,29,15.90
2014,09,19,11,30,15.90
2014,09,19,11,31,15.90
2014,09,19,11,32,15.90
2014,09,19,11,33,16.00
2014,09,19,11,34,16.00
2014,09,19,11,35,16.00
2014,09,19,11,36,16.00
2014,09,19,11,37,16.00
2014,09,19,11,38,16.00
2014,09,19,11,39,16.00
2014,09,19,11,40,16.10
2014,09,19,11,41,16.10
2014,09,19,11,42,16.10
2014,09,19,11,43,16.10
2014,09,19,11,44,16.10
2014,09,19,11,45,16.10
2014,09,19,11,46,16.10
2014,09,19,11,47,16.10
2014,09,19,11,48,16.10
2014,09,19,11,49,16.10
2014,09,19,11,50,16.10
2014,09,19,11,51,16.20
2014,09,19,11,52,16.20
2014,09,19,11,53,16.20
2014,09,19,11,54,16.20
2014,09,19,11,55,16.20
2014,09,19,11,56,16.20
2014,09,19,11,57,16.20
2014,09,19,11,58,16.20
2014,09,19,11,59,16.20
2014,09,19,12,00,16.30
2014,09,19,12,01,16.30
2014,09,19,12,02,16.30
2014,09,19,12,03,16.30
2014,09,19,12,04,16.30
2014,09,19,12,05,16.30
2014,09,19,12,06,16.30
2014,09,19,12,07,16.30
2014,09,19,12,08,16.30
2014,09,19,12,09,16.30
2014,09,19,12,10,16.30
2014,09,19,12,11,16.30
2014,09,19,12,12,16.30
2014,09,19,12,13,16.30
2014,09,19,12,14,16.30
2014,09,19,12,15,16.30
2014,09,19,12,16,16.30
2014,09,19,12,17,16.30
2014,09,19,12,18,16.20
2014,09,19,12,19,16.20
2014,09,19,12,20,16.20
2014,09,19,12,21,16.20
2014,09,19,12,22,16.20
2014,09,19,12,23,16.20
2014,09,19,12,24,16.20
2014,09,19,12,25,16.20
2014,09,19,12,26,16.20
2014,09,19,12,27,16.20
2014,09,19,12,28,16.20
2014,09,19,12,29,16.20
2014,09,19,12,30,16.20
2014,09,19,12,31,16.20
2014,09,19,12,32,16.30
2014,09,19,12,33,16.30
2014,09,19,12,34,16.30
2014,09,19,12,35,16.30
2014,09,19,12,36,16.30
2014,09,19,12,37,16.30
2014,09,19,12,38,16.30
2014,09,19,12,39,16.30
2014,09,19,12,40,16.30
2014,09,19,12,41,16.30
2014,09,19,12,42,16.30
2014,09,19,12,43,16.40
2014,09,19,12,44,16.40
2014,09,19,12,45,16.50
2014,09,19,12,46,16.50
2014,09,19,12,47,16.60
2014,09,19,12,48,16.60
2014,09,19,12,49,16.60
2014,09,19,12,50,16.70
2014,09,19,12,51,16.70
2014,09,19,12,52,16.80
2014,09,19,12,53,16.80
2014,09,19,12,54,16.90
2014,09,19,12,55,16.90
2014,09,19,12,56,17.00
2014,09,19,12,57,17.00
2014,09,19,12,58,17.10
2014,09,19,12,59,17.10
2014,09,19,13,00,17.10
2014,09,19,13,01,17.10
2014,09,19,13,02,17.10
2014,09,19,13,03,17.10
2014,09,19,13,04,17.10
2014,09,19,13,05,17.10
2014,09,19,13,06,17.20
2014,09,19,13,07,17.20
2014,09,19,13,08,17.20
2014,09,19,13,09,17.20
2014,09,19,13,10,17.20
2014,09,19,13,11,17.20
2014,09,19,13,12,17.20
2014,09,19,13,13,17.20
2014,09,19,13,14,17.20
2014,09,19,13,15,17.20
2014,09,19,13,16,17.20
2014,09,19,13,17,17.20
2014,09,19,13,18,17.10
2014,09,19,13,19,17.10
2014,09,19,13,20,17.10
2014,09,19,13,21,17.10
2014,09,19,13,22,17.10
2014,09,19,13,23,17.10
2014,09,19,13,24,17.10
2014,09,19,13,25,17.10
2014,09,19,13,26,17.10
2014,09,19,13,27,17.10
2014,09,19,13,28,17.10
2014,09,19,13,29,17.10
2014,09,19,13,30,17.20
2014,09,19,13,31,17.20
2014,09,19,13,32,17.30
2014,09,19,13,33,17.30
2014,09,19,13,34,17.30
2014,09,19,13,35,17.30
2014,09,19,13,36,17.30
2014,09,19,13,37,17.40
2014,09,19,13,38,17.40
2014,09,19,13,39,17.50
2014,09,19,13,40,17.50
2014,09,19,13,41,17.60
2014,09,19,13,42,17.60
2014,09,19,13,43,17.70
2014,09,19,13,44,17.70
2014,09,19,13,45,17.80
2014,09,19,13,46,17.90
2014,09,19,13,47,18.00
2014,09,19,13,48,18.10
2014,09,19,13,49,18.10
2014,09,19,13,50,18.20
2014,09,19,13,51,18.20
2014,09,19,13,52,18.20
2014,09,19,13,53,18.20
2014,09,19,13,54,18.30
2014,09,19,13,55,18.30
2014,09,19,13,56,18.30
2014,09,19,13,57,18.30
2014,09,19,13,58,18.30
2014,09,19,13,59,18.20
2014,09,19,14,00,18.20
2014,09,19,14,01,18.20
2014,09,19,14,02,18.20
2014,09,19,14,03,18.20
2014,09,19,14,04,18.20
2014,09,19,14,05,18.20
2014,09,19,14,06,18.30
2014,09,19,14,07,18.30
2014,09,19,14,08,18.30
2014,09,19,14,09,18.40
2014,09,19,14,10,18.40
2014,09,19,14,11,18.50
2014,09,19,14,12,18.60
2014,09,19,14,13,18.60
2014,09,19,14,14,18.70
2014,09,19,14,15,18.70
2014,09,19,14,16,18.70
2014,09,19,14,17,18.70
2014,09,19,14,18,18.70
2014,09,19,14,19,18.60
2014,09,19,14,20,18.60
2014,09,19,14,21,18.50
2014,09,19,14,22,18.40
2014,09,19,14,23,18.40
2014,09,19,14,24,18.40
2014,09,19,14,25,18.50
2014,09,19,14,26,18.50
2014,09,19,14,27,18.50
2014,09,19,14,28,18.50
2014,09,19,14,29,18.50
2014,09,19,14,30,18.50
2014,09,19,14,31,18.40
2014,09,19,14,32,18.40
2014,09,19,14,33,18.40
2014,09,19,14,34,18.40
2014,09,19,14,35,18.40
2014,09,19,14,36,18.40
2014,09,19,14,37,18.40
2014,09,19,14,38,18.50
2014,09,19,14,39,18.50
2014,09,19,14,40,18.50
2014,09,19,14,41,18.50
2014,09,19,14,42,18.60
2014,09,19,14,43,18.60
2014,09,19,14,44,18.60
2014,09,19,14,45,18.60
2014,09,19,14,46,18.60
2014,09,19,14,47,18.70
2014,09,19,14,48,18.70
2014,09,19,14,49,18.60
2014,09,19,14,50,18.60
2014,09,19,14,51,18.50
2014,09,19,14,52,18.50
2014,09,19,14,53,18.50
2014,09,19,14,54,18.50
2014,09,19,14,55,18.60
2014,09,19,14,56,18.60
2014,09,19,14,57,18.60
2014,09,19,14,58,18.70
2014,09,19,14,59,18.70
2014,09,19,15,00,18.70
2014,09,19,15,01,18.70
2014,09,19,15,02,18.80
2014,09,19,15,03,18.80
2014,09,19,15,04,18.80
2014,09,19,15,05,18.80
2014,09,19,15,06,18.80
2014,09,19,15,07,18.80
2014,09,19,15,08,18.80
2014,09,19,15,09,18.80
2014,09,19,15,10,18.80
2014,09,19,15,11,18.90
2014,09,19,15,12,18.90
2014,09,19,15,13,19.00
2014,09,19,15,14,19.00
2014,09,19,15,15,19.10
2014,09,19,15,16,19.10
2014,09,19,15,17,19.10
2014,09,19,15,18,19.10
2014,09,19,15,19,19.10
2014,09,19,15,20,19.10
2014,09,19,15,21,19.10
2014,09,19,15,22,19.00
2014,09,19,15,23,19.00
2014,09,19,15,24,19.00
2014,09,19,15,25,18.90
2014,09,19,15,26,18.90
2014,09,19,15,27,18.90
2014,09,19,15,28,18.80
2014,09,19,15,29,18.80
2014,09,19,15,30,18.80
2014,09,19,15,31,18.80
2014,09,19,15,32,18.80
2014,09,19,15,33,18.80
2014,09,19,15,34,18.80
2014,09,19,15,35,18.80
2014,09,19,15,36,18.80
2014,09,19,15,37,18.80
2014,09,19,15,38,18.80
2014,09,19,15,39,18.80
2014,09,19,15,40,18.80
2014,09,19,15,41,18.90
2014,09,19,15,42,18.90
2014,09,19,15,43,18.80
2014,09,19,15,44,18.80
2014,09,19,15,45,18.80
2014,09,19,15,46,18.80
2014,09,19,15,47,18.80
2014,09,19,15,48,18.80
2014,09,19,15,49,18.80
2014,09,19,15,50,18.80
2014,09,19,15,51,18.80
2014,09,19,15,52,18.80
2014,09,19,15,53,18.80
2014,09,19,15,54,18.80
2014,09,19,15,55,18.90
2014,09,19,15,56,18.90
2014,09,19,15,57,19.00
2014,09,19,15,58,19.00
2014,09,19,15,59,19.10
2014,09,19,16,00,19.10
2014,09,19,16,01,19.10
2014,09,19,16,02,19.10
2014,09,19,16,03,19.10
2014,09,19,16,04,19.00
2014,09,19,16,05,19.00
2014,09,19,16,06,19.00
2014,09,19,16,07,19.00
2014,09,19,16,08,19.00
2014,09,19,16,09,19.00
2014,09,19,16,10,19.00
2014,09,19,16,11,19.10
2014,09,19,16,12,19.10
2014,09,19,16,13,19.10
2014,09,19,16,14,19.10
2014,09,19,16,15,19.20
2014,09,19,16,16,19.20
2014,09,19,16,17,19.30
2014,09,19,16,18,19.30
2014,09,19,16,19,19.30
2014,09,19,16,20,19.30
2014,09,19,16,21,19.30
2014,09,19,16,22,19.30
2014,09,19,16,23,19.30
2014,09,19,16,24,19.30
2014,09,19,16,25,19.30
2014,09,19,16,26,19.30
2014,09,19,16,27,19.30
2014,09,19,16,28,19.30
2014,09,19,16,29,19.30
2014,09,19,16,30,19.30
2014,09,19,16,31,19.30
2014,09,19,16,32,19.30
2014,09,19,16,33,19.30
2014,09,19,16,34,19.40
2014,09,19,16,35,19.40
2014,09,19,16,36,19.50
2014,09,19,16,37,19.50
2014,09,19,16,38,19.50
2014,09,19,16,39,19.60
2014,09,19,16,40,19.60
2014,09,19,16,41,19.60
2014,09,19,16,42,19.60
2014,09,19,16,43,19.70
2014,09,19,16,44,19.70
2014,09,19,16,45,19.70
2014,09,19,16,46,19.80
2014,09,19,16,47,19.80
2014,09,19,16,48,19.80
2014,09,19,16,49,19.90
2014,09,19,16,50,19.90
2014,09,19,16,51,19.90
2014,09,19,16,52,19.90
2014,09,19,16,53,20.00
2014,09,19,16,54,20.10
2014,09,19,16,55,20.10
2014,09,19,16,56,20.10
2014,09,19,16,57,20.10
2014,09,19,16,58,20.10
2014,09,19,16,59,20.10
2014,09,19,17,00,20.10
2014,09,19,17,01,20.10
2014,09,19,17,02,20.10
2014,09,19,17,03,20.10
2014,09,19,17,04,20.10
2014,09,19,17,05,20.10
2014,09,19,17,06,20.20
2014,09,19,17,07,20.20
2014,09,19,17,08,20.20
2014,09,19,17,09,20.20
2014,09,19,17,10,20.30
2014,09,19,17,11,20.30
2014,09,19,17,12,20.30
2014,09,19,17,13,20.30
2014,09,19,17,14,20.30
2014,09,19,17,15,20.30
2014,09,19,17,16,20.30
2014,09,19,17,17,20.30
2014,09,19,17,18,20.30
2014,09,19,17,19,20.30